Regional Weather Roundup
Issued by NWS

Home | Current Version | Previous Version | Text Only | Print | Product List | Glossary Off
Versions: 1 2 3 4 5 6 7 8 9 10 11 12 13 14 15 16 17 18 19 20 21 22 23 24 25 26 27 28 29 30 31 32 33 34 35 36 37 38 39 40 41 42 43 44 45 46 47 48 49 50

000
ASUS43 KLMK 240310
RWRKY
KENTUCKY REGIONAL WEATHER ROUNDUP
NATIONAL WEATHER SERVICE LOUISVILLE KY
1100 PM EDT SAT MAY 23 2015

NOTE "FAIR" INDICATES FEW OR NO CLOUDS BELOW 12,000 FEET
WITH NO SIGNIFICANT WEATHER AND/OR OBSTRUCTIONS TO VISIBILITY.

KYZ001>023-026-027-061>063-070>075-240400-
WESTERN AND SOUTH CENTRAL KENTUCKY

CITY           SKY/WX    TMP DP  RH WIND       PRES   REMARKS
PADUCAH        PTCLDY    67  55  65 SE5       30.17F
HENDERSON      MOCLDY    70  52  52 SE5       30.20S
OWENSBORO      MOCLDY    69  54  58 SE6       30.23R
HOPKINSVILLE   PTCLDY    70  56  63 E2        30.21S
BOWLING GREEN  PTCLDY    67  55  65 CALM      30.24S
GLASGOW        CLEAR     64  56  76 E3        30.25S
$$

KYZ024-025-028>034-038-045-046-053-240400-
NORTH CENTRAL KENTUCKY

CITY           SKY/WX    TMP DP  RH WIND       PRES   REMARKS
LOUISVILLE/SDF MOCLDY    72  48  42 SE3       30.25R
LOUISVILLE/LOU MOCLDY    70  50  49 CALM      30.26R
FORT KNOX      PTCLDY    59  52  76 CALM      30.24R
$$

KYZ035>037-039>044-047>052-055>060-089>105-240400-
NORTHEAST KENTUCKY

CITY           SKY/WX    TMP DP  RH WIND       PRES   REMARKS
LEXINGTON      PTCLDY    68  47  46 E6        30.29R
COVINGTON      PTCLDY    65  47  52 SE5       30.29R
FRANKFORT      PTCLDY    63  50  62 CALM      30.27S
$$

KYZ054-064>069-076>088-106>120-240400-
SOUTHEAST KENTUCKY

CITY           SKY/WX    TMP DP  RH WIND       PRES   REMARKS
JACKSON        CLEAR     67  47  48 CALM      30.32R
LONDON         PTCLDY    64  51  62 CALM      30.31R
SOMERSET       PTCLDY    61  54  77 CALM      30.30S
MIDDLESBORO    CLEAR     61  55  79 CALM      30.33R
MONTICELLO     PTCLDY    59  55  86 CALM      30.32R
$$



USA.gov is the U.S. government's official web portal to all federal, state and local government web resources and services.